Time,TemperatureF,DewpointF,PressureIn,WindDirection,WindDirectionDegrees,WindSpeedMPH,WindSpeedGustMPH,Humidity,HourlyPrecipIn,Conditions,Clouds,dailyrainin,SoftwareType,DateUTC
2017-08-18 00:04:00,64.1,64.0,29.94,WNW,288,0.0,0.0,98,0.00,,,0.00,weatherlink.com 1.10,2017-08-18 04:04:00,
2017-08-18 00:19:00,64.4,64.0,29.94,East,96,0.0,0.0,98,0.00,,,0.00,weatherlink.com 1.10,2017-08-18 04:19:00,
2017-08-18 00:34:00,64.6,64.0,29.93,SSW,197,0.0,2.0,98,0.00,,,0.00,weatherlink.com 1.10,2017-08-18 04:34:00,
2017-08-18 00:49:00,64.8,64.0,29.92,East,85,0.0,0.0,97,0.00,,,0.00,weatherlink.com 1.10,2017-08-18 04:49:00,
2017-08-18 01:04:00,64.7,64.0,29.91,WNW,300,0.0,1.0,97,0.00,,,0.00,weatherlink.com 1.10,2017-08-18 05:04:00,
2017-08-18 01:19:00,64.7,64.0,29.91,SW,229,0.0,0.0,97,0.00,,,0.00,weatherlink.com 1.10,2017-08-18 05:19:00,
2017-08-18 01:34:00,64.7,64.0,29.90,SSW,209,0.0,0.0,97,0.00,,,0.00,weatherlink.com 1.10,2017-08-18 05:34:00,
2017-08-18 01:49:00,64.8,64.0,29.89,SE,143,0.0,0.0,97,0.00,,,0.00,weatherlink.com 1.10,2017-08-18 05:49:00,
2017-08-18 02:04:00,64.6,64.0,29.89,NW,307,0.0,0.0,97,0.00,,,0.00,weatherlink.com 1.10,2017-08-18 06:04:00,
2017-08-18 02:19:00,64.7,64.0,29.89,NW,307,0.0,0.0,98,0.00,,,0.00,weatherlink.com 1.10,2017-08-18 06:19:00,
2017-08-18 02:34:00,64.7,64.0,29.88,NW,307,0.0,0.0,98,0.00,,,0.00,weatherlink.com 1.10,2017-08-18 06:34:00,
2017-08-18 02:49:00,64.8,64.0,29.88,NW,307,0.0,0.0,98,0.00,,,0.00,weatherlink.com 1.10,2017-08-18 06:49:00,
2017-08-18 03:04:00,64.9,64.0,29.88,SW,233,0.0,0.0,98,0.00,,,0.00,weatherlink.com 1.10,2017-08-18 07:04:00,
2017-08-18 03:19:00,65.0,65.0,29.87,West,271,0.0,0.0,98,0.00,,,0.00,weatherlink.com 1.10,2017-08-18 07:19:00,
2017-08-18 03:34:00,65.1,65.0,29.86,West,271,0.0,0.0,98,0.00,,,0.00,weatherlink.com 1.10,2017-08-18 07:34:00,
2017-08-18 03:49:00,65.3,65.0,29.85,SSW,205,0.0,0.0,98,0.00,,,0.00,weatherlink.com 1.10,2017-08-18 07:49:00,
2017-08-18 04:04:00,67.2,67.0,29.85,ESE,117,2.0,11.0,99,0.00,,,0.00,weatherlink.com 1.10,2017-08-18 08:04:00,
2017-08-18 04:19:00,68.6,68.0,29.84,East,96,3.0,10.0,96,0.00,,,0.00,weatherlink.com 1.10,2017-08-18 08:19:00,
2017-08-18 04:34:00,69.7,68.0,29.84,ESE,116,5.0,9.0,95,0.00,,,0.00,weatherlink.com 1.10,2017-08-18 08:34:00,
2017-08-18 04:49:00,69.9,68.0,29.84,ESE,111,4.0,12.0,94,0.00,,,0.00,weatherlink.com 1.10,2017-08-18 08:49:00,
2017-08-18 05:05:00,70.1,68.0,29.84,ESE,113,8.0,16.0,94,0.00,,,0.00,weatherlink.com 1.10,2017-08-18 09:05:00,
2017-08-18 05:20:00,70.3,69.0,29.83,ESE,113,4.0,10.0,94,0.00,,,0.00,weatherlink.com 1.10,2017-08-18 09:20:00,
2017-08-18 05:35:00,69.5,68.0,29.82,SE,143,1.0,6.0,95,0.02,,,0.02,weatherlink.com 1.10,2017-08-18 09:35:00,
2017-08-18 05:50:00,68.8,68.0,29.83,ESE,109,3.0,4.0,96,0.02,,,0.02,weatherlink.com 1.10,2017-08-18 09:50:00,
2017-08-18 06:05:00,68.4,68.0,29.83,ESE,109,0.0,0.0,97,0.02,,,0.02,weatherlink.com 1.10,2017-08-18 10:05:00,
2017-08-18 06:20:00,67.7,67.0,29.83,NNE,21,0.0,2.0,97,0.02,,,0.02,weatherlink.com 1.10,2017-08-18 10:20:00,
2017-08-18 06:35:00,67.7,67.0,29.83,SE,127,0.0,2.0,98,0.00,,,0.02,weatherlink.com 1.10,2017-08-18 10:35:00,
2017-08-18 06:50:00,67.7,67.0,29.83,ESE,103,0.0,0.0,98,0.00,,,0.02,weatherlink.com 1.10,2017-08-18 10:50:00,
2017-08-18 07:05:00,68.5,68.0,29.83,ESE,114,1.0,7.0,98,0.00,,,0.02,weatherlink.com 1.10,2017-08-18 11:05:00,
2017-08-18 07:20:00,68.4,68.0,29.83,East,95,6.0,6.0,98,0.00,,,0.02,weatherlink.com 1.10,2017-08-18 11:20:00,
2017-08-18 07:35:00,69.0,68.0,29.83,ESE,122,9.0,10.0,97,0.00,,,0.02,weatherlink.com 1.10,2017-08-18 11:35:00,
2017-08-18 07:50:00,69.9,69.0,29.83,SE,140,8.0,14.0,97,0.00,,,0.02,weatherlink.com 1.10,2017-08-18 11:50:00,
2017-08-18 08:05:00,70.4,69.0,29.82,ESE,114,7.0,13.0,96,0.00,,,0.02,weatherlink.com 1.10,2017-08-18 12:05:00,
2017-08-18 08:20:00,70.4,69.0,29.82,ESE,107,5.0,7.0,96,0.00,,,0.02,weatherlink.com 1.10,2017-08-18 12:20:00,
2017-08-18 08:35:00,70.8,69.0,29.82,NE,51,7.0,10.0,95,0.00,,,0.02,weatherlink.com 1.10,2017-08-18 12:35:00,
2017-08-18 08:50:00,70.9,70.0,29.82,SSE,163,1.0,4.0,96,0.00,,,0.02,weatherlink.com 1.10,2017-08-18 12:50:00,
2017-08-18 09:05:00,71.3,70.0,29.82,SE,129,3.0,9.0,95,0.00,,,0.02,weatherlink.com 1.10,2017-08-18 13:05:00,
2017-08-18 09:20:00,72.0,70.0,29.82,ESE,116,3.0,10.0,93,0.00,,,0.02,weatherlink.com 1.10,2017-08-18 13:20:00,
2017-08-18 09:35:00,72.6,71.0,29.81,ESE,118,4.0,9.0,93,0.00,,,0.02,weatherlink.com 1.10,2017-08-18 13:35:00,
2017-08-18 09:50:00,73.0,71.0,29.80,SSE,148,4.0,11.0,92,0.00,,,0.02,weatherlink.com 1.10,2017-08-18 13:50:00,
2017-08-18 10:05:00,73.2,71.0,29.81,SE,142,2.0,8.0,91,0.00,,,0.02,weatherlink.com 1.10,2017-08-18 14:05:00,
2017-08-18 10:20:00,73.4,71.0,29.81,ESE,113,9.0,12.0,91,0.00,,,0.02,weatherlink.com 1.10,2017-08-18 14:20:00,
2017-08-18 10:35:00,73.3,71.0,29.80,ESE,118,7.0,13.0,91,0.00,,,0.02,weatherlink.com 1.10,2017-08-18 14:35:00,
2017-08-18 10:50:00,73.1,70.0,29.81,ESE,109,2.0,9.0,91,0.00,,,0.02,weatherlink.com 1.10,2017-08-18 14:50:00,
2017-08-18 11:05:00,73.1,70.0,29.81,SE,141,3.0,11.0,91,0.00,,,0.02,weatherlink.com 1.10,2017-08-18 15:05:00,
2017-08-18 11:20:00,72.9,70.0,29.81,SSE,147,5.0,11.0,91,0.00,,,0.02,weatherlink.com 1.10,2017-08-18 15:20:00,
2017-08-18 11:35:00,72.8,70.0,29.81,ESE,119,3.0,9.0,92,0.00,,,0.02,weatherlink.com 1.10,2017-08-18 15:35:00,
2017-08-18 11:50:00,73.0,71.0,29.80,ESE,103,9.0,11.0,92,0.00,,,0.02,weatherlink.com 1.10,2017-08-18 15:50:00,
2017-08-18 12:05:00,73.0,71.0,29.80,SE,130,3.0,9.0,92,0.00,,,0.02,weatherlink.com 1.10,2017-08-18 16:05:00,
2017-08-18 12:20:00,73.8,71.0,29.79,SE,136,5.0,13.0,91,0.00,,,0.02,weatherlink.com 1.10,2017-08-18 16:20:00,
2017-08-18 12:35:00,74.0,71.0,29.78,ESE,105,8.0,14.0,90,0.00,,,0.02,weatherlink.com 1.10,2017-08-18 16:35:00,
2017-08-18 12:50:00,74.1,71.0,29.79,SE,142,4.0,12.0,89,0.00,,,0.02,weatherlink.com 1.10,2017-08-18 16:50:00,
2017-08-18 13:05:00,74.1,71.0,29.79,East,91,5.0,7.0,90,0.00,,,0.02,weatherlink.com 1.10,2017-08-18 17:05:00,
2017-08-18 13:20:00,74.1,71.0,29.78,ESE,114,9.0,17.0,90,0.00,,,0.02,weatherlink.com 1.10,2017-08-18 17:20:00,
2017-08-18 13:35:00,73.9,71.0,29.79,SSW,198,3.0,9.0,91,0.00,,,0.02,weatherlink.com 1.10,2017-08-18 17:35:00,
2017-08-18 13:50:00,73.8,71.0,29.78,ESE,108,5.0,10.0,91,0.00,,,0.02,weatherlink.com 1.10,2017-08-18 17:50:00,
2017-08-18 14:06:00,73.5,71.0,29.77,ESE,122,2.0,9.0,91,0.00,,,0.02,weatherlink.com 1.10,2017-08-18 18:06:00,
2017-08-18 14:21:00,73.3,71.0,29.77,SE,142,3.0,6.0,92,0.00,,,0.02,weatherlink.com 1.10,2017-08-18 18:21:00,
2017-08-18 14:36:00,72.6,71.0,29.77,ESE,113,0.0,4.0,94,0.00,,,0.02,weatherlink.com 1.10,2017-08-18 18:36:00,
2017-08-18 14:51:00,72.2,71.0,29.77,ESE,113,1.0,1.0,95,0.02,,,0.04,weatherlink.com 1.10,2017-08-18 18:51:00,
2017-08-18 15:06:00,71.9,71.0,29.77,ESE,113,0.0,1.0,96,0.04,,,0.06,weatherlink.com 1.10,2017-08-18 19:06:00,
2017-08-18 15:21:00,71.8,71.0,29.76,ESE,113,0.0,1.0,97,0.08,,,0.10,weatherlink.com 1.10,2017-08-18 19:21:00,
2017-08-18 15:36:00,71.8,71.0,29.76,NNW,344,1.0,2.0,97,0.15,,,0.17,weatherlink.com 1.10,2017-08-18 19:36:00,
2017-08-18 15:51:00,71.7,71.0,29.75,West,278,0.0,3.0,98,0.14,,,0.18,weatherlink.com 1.10,2017-08-18 19:51:00,
2017-08-18 16:06:00,72.1,72.0,29.75,West,278,0.0,1.0,98,0.12,,,0.18,weatherlink.com 1.10,2017-08-18 20:06:00,
2017-08-18 16:21:00,72.6,72.0,29.74,West,278,0.0,1.0,98,0.08,,,0.18,weatherlink.com 1.10,2017-08-18 20:21:00,
2017-08-18 16:36:00,72.8,72.0,29.74,West,278,0.0,2.0,98,0.01,,,0.18,weatherlink.com 1.10,2017-08-18 20:36:00,
2017-08-18 16:51:00,73.2,73.0,29.74,West,278,0.0,2.0,98,0.00,,,0.18,weatherlink.com 1.10,2017-08-18 20:51:00,